When you browse on this site, cookies collect data to enhance your experience and personalize the content and advertising you see.
Visit our Privacy Policy to learn more. By continuing to use the site, you agree to this use of cookies and data.
  • En España
  • Lista de países
  • Para 7 días
  • Temperatura del agua
  • Mapa Satelital
  • El tiempo en el mapa
  • Informadores
  • user-avatar
    Iniciar sesión

    Tiempo cada hora Kurash

    Hoy, 25 Marzo, Lunes

    Tiempo Temperatura Precipitaciones Viento Presión Humedad
    00:00 +5°C° 0 mm 1 mps 748 mmHg 66%
    01:00 +5°C° 0 mm 1 mps 748 mmHg 68%
    02:00 +3°C° 0 mm 0 mps 747 mmHg 69%
    03:00 +3°C° 0 mm 0 mps 747 mmHg 69%
    04:00 +3°C° 0 mm 0 mps 746 mmHg 70%
    05:00 +3°C° 0 mm 0 mps 746 mmHg 70%
    06:00 +3°C° 0 mm 0 mps 746 mmHg 68%
    07:00 +4°C° 0 mm 0 mps 745 mmHg 66%
    08:00 +5°C° 0 mm 0 mps 745 mmHg 62%
    09:00 +7°C° 0 mm 1 mps 745 mmHg 57%
    10:00 +8°C° 0 mm 1 mps 744 mmHg 53%
    11:00 +10°C° 0 mm 1 mps 744 mmHg 48%
    12:00 +9°C° 0 mm 2 mps 744 mmHg 44%
    13:00 +10°C° 0 mm 2 mps 743 mmHg 41%
    14:00 +12°C° 0 mm 2 mps 743 mmHg 37%
    15:00 +10°C° 0 mm 2 mps 743 mmHg 38%
    16:00 +10°C° 0 mm 2 mps 743 mmHg 39%
    17:00 +10°C° 0 mm 2 mps 742 mmHg 41%
    18:00 +9°C° 0 mm 2 mps 742 mmHg 45%
    19:00 +7°C° 0 mm 2 mps 742 mmHg 50%
    20:00 +7°C° 0 mm 1 mps 742 mmHg 54%
    21:00 +7°C° 0 mm 1 mps 742 mmHg 56%
    22:00 +6°C° 0 mm 1 mps 743 mmHg 58%
    23:00 +5°C° 0 mm 1 mps 743 mmHg 60%

    Mañana, 26 Marzo, Martes

    Tiempo Temperatura Precipitaciones Viento Presión Humedad
    00:00 +5°C° 0.6 mm 1 mps 743 mmHg 65%
    01:00 +4°C° 0.6 mm 2 mps 743 mmHg 71%
    02:00 +3°C° 0.6 mm 3 mps 743 mmHg 76%
    03:00 +3°C° 1.1 mm 3 mps 743 mmHg 77%
    04:00 +3°C° 1.1 mm 3 mps 744 mmHg 78%
    05:00 +3°C° 1.1 mm 3 mps 744 mmHg 78%
    06:00 +1°C° 0 mm 4 mps 744 mmHg 79%
    07:00 +1°C° 0 mm 4 mps 745 mmHg 80%
    08:00 +1°C° 0 mm 5 mps 745 mmHg 81%
    09:00 +1°C° 0 mm 5 mps 746 mmHg 78%
    10:00 +2°C° 0 mm 5 mps 746 mmHg 74%
    11:00 +2°C° 0 mm 5 mps 746 mmHg 71%
    12:00 +3°C° 0 mm 5 mps 746 mmHg 63%
    13:00 +5°C° 0 mm 5 mps 746 mmHg 56%
    14:00 +6°C° 0 mm 5 mps 746 mmHg 48%
    15:00 +6°C° 0 mm 5 mps 746 mmHg 48%
    16:00 +5°C° 0 mm 5 mps 745 mmHg 48%
    17:00 +5°C° 0 mm 5 mps 745 mmHg 47%
    18:00 +3°C° 0.6 mm 5 mps 745 mmHg 56%
    19:00 +2°C° 0.6 mm 5 mps 744 mmHg 65%
    20:00 +2°C° 0.6 mm 5 mps 744 mmHg 74%
    21:00 +1°C° 0.8 mm 6 mps 743 mmHg 78%
    22:00 +1°C° 0.8 mm 6 mps 743 mmHg 82%
    23:00 -1°C° 0.8 mm 6 mps 743 mmHg 86%

    Pasado mañana, 27 Marzo, Miércoles

    Tiempo Temperatura Precipitaciones Viento Presión Humedad
    00:00 -1°C° 0.4 mm 7 mps 744 mmHg 86%
    01:00 -1°C° 0.4 mm 7 mps 745 mmHg 86%
    02:00 -2°C° 0.4 mm 7 mps 745 mmHg 86%
    03:00 -2°C° 0 mm 7 mps 746 mmHg 86%
    04:00 -3°C° 0 mm 6 mps 747 mmHg 86%
    05:00 -3°C° 0 mm 6 mps 748 mmHg 86%
    06:00 -3°C° 0 mm 6 mps 749 mmHg 85%
    07:00 -3°C° 0 mm 6 mps 749 mmHg 84%
    08:00 -3°C° 0 mm 6 mps 750 mmHg 83%
    09:00 -2°C° 0 mm 6 mps 751 mmHg 77%
    10:00 -1°C° 0 mm 6 mps 752 mmHg 71%
    11:00 -1°C° 0 mm 6 mps 752 mmHg 65%
    12:00 +1°C° 0 mm 6 mps 753 mmHg 60%
    13:00 +2°C° 0 mm 6 mps 753 mmHg 56%
    14:00 +3°C° 0 mm 6 mps 753 mmHg 51%
    15:00 +2°C° 0 mm 6 mps 753 mmHg 51%
    16:00 +2°C° 0 mm 5 mps 753 mmHg 52%
    17:00 +2°C° 0 mm 5 mps 753 mmHg 52%
    18:00 +1°C° 0 mm 4 mps 754 mmHg 58%
    19:00 +1°C° 0 mm 3 mps 754 mmHg 64%
    20:00 -1°C° 0 mm 2 mps 755 mmHg 70%
    21:00 -1°C° 0 mm 2 mps 755 mmHg 70%
    22:00 -2°C° 0 mm 2 mps 756 mmHg 71%
    23:00 -2°C° 0 mm 2 mps 756 mmHg 71%

    28 Marzo, Jueves

    Tiempo Temperatura Precipitaciones Viento Presión Humedad
    00:00 -2°C° 0 mm 2 mps 756 mmHg 71%
    01:00 0°C° 0 mm 1 mps 757 mmHg 71%
    02:00 -1°C° 0 mm 1 mps 757 mmHg 71%
    03:00 -1°C° 0 mm 1 mps 757 mmHg 70%
    04:00 -1°C° 0 mm 1 mps 757 mmHg 69%
    05:00 -1°C° 0 mm 1 mps 758 mmHg 69%
    06:00 0°C° 0 mm 1 mps 758 mmHg 64%
    07:00 +1°C° 0 mm 1 mps 758 mmHg 60%
    08:00 +2°C° 0 mm 1 mps 759 mmHg 56%
    09:00 +3°C° 0 mm 1 mps 759 mmHg 50%
    10:00 +3°C° 0 mm 2 mps 759 mmHg 43%
    11:00 +4°C° 0 mm 2 mps 759 mmHg 37%
    12:00 +5°C° 0 mm 2 mps 759 mmHg 36%
    13:00 +6°C° 0 mm 2 mps 759 mmHg 34%
    14:00 +6°C° 0 mm 2 mps 759 mmHg 33%
    15:00 +6°C° 0 mm 2 mps 759 mmHg 35%
    16:00 +6°C° 0 mm 2 mps 759 mmHg 37%
    17:00 +6°C° 0 mm 2 mps 759 mmHg 39%
    18:00 +5°C° 0 mm 1 mps 759 mmHg 43%
    19:00 +4°C° 0 mm 1 mps 759 mmHg 48%
    20:00 +2°C° 0 mm 1 mps 760 mmHg 52%
    21:00 +2°C° 0 mm 1 mps 760 mmHg 53%
    22:00 +2°C° 0 mm 1 mps 760 mmHg 55%
    23:00 +1°C° 0 mm 1 mps 760 mmHg 56%

    29 Marzo, Viernes

    Tiempo Temperatura Precipitaciones Viento Presión Humedad
    00:00 +1°C° 0 mm 1 mps 760 mmHg 56%
    01:00 -1°C° 0 mm 2 mps 760 mmHg 56%
    02:00 -1°C° 0 mm 2 mps 760 mmHg 57%
    03:00 -1°C° 0 mm 2 mps 760 mmHg 58%
    04:00 -1°C° 0 mm 2 mps 760 mmHg 60%
    05:00 -1°C° 0 mm 3 mps 759 mmHg 61%
    06:00 0°C° 0 mm 3 mps 759 mmHg 58%
    07:00 0°C° 0 mm 4 mps 759 mmHg 55%
    08:00 +3°C° 0 mm 4 mps 759 mmHg 52%
    09:00 +5°C° 0 mm 5 mps 759 mmHg 54%
    10:00 +6°C° 0 mm 5 mps 758 mmHg 56%
    11:00 +8°C° 0 mm 5 mps 758 mmHg 58%
    12:00 +9°C° 0 mm 6 mps 758 mmHg 55%
    13:00 +10°C° 0 mm 6 mps 757 mmHg 53%
    14:00 +11°C° 0 mm 6 mps 756 mmHg 51%
    15:00 +12°C° 0 mm 5 mps 756 mmHg 52%
    16:00 +12°C° 0 mm 5 mps 756 mmHg 54%
    17:00 +12°C° 0 mm 4 mps 755 mmHg 56%
    18:00 +10°C° 0 mm 4 mps 756 mmHg 62%
    19:00 +8°C° 0 mm 3 mps 756 mmHg 69%
    20:00 +7°C° 0 mm 3 mps 756 mmHg 76%
    21:00 +5°C° 0 mm 3 mps 756 mmHg 79%
    22:00 +6°C° 0 mm 2 mps 755 mmHg 82%
    23:00 +6°C° 0 mm 2 mps 755 mmHg 86%

    30 Marzo, Sábado

    Tiempo Temperatura Precipitaciones Viento Presión Humedad
    00:00 +5°C° 0 mm 2 mps 755 mmHg 88%
    01:00 +4°C° 0 mm 3 mps 755 mmHg 91%
    02:00 +4°C° 0 mm 3 mps 755 mmHg 94%
    03:00 +4°C° 0 mm 3 mps 755 mmHg 95%
    04:00 +3°C° 0 mm 3 mps 755 mmHg 95%
    05:00 +3°C° 0 mm 3 mps 755 mmHg 96%
    06:00 +4°C° 0 mm 3 mps 755 mmHg 92%
    07:00 +5°C° 0 mm 3 mps 755 mmHg 89%
    08:00 +6°C° 0 mm 4 mps 755 mmHg 85%
    09:00 +8°C° 0 mm 4 mps 755 mmHg 77%
    10:00 +10°C° 0 mm 4 mps 754 mmHg 70%
    11:00 +12°C° 0 mm 4 mps 754 mmHg 62%
    12:00 +13°C° 0 mm 4 mps 754 mmHg 58%
    13:00 +14°C° 0 mm 4 mps 754 mmHg 54%
    14:00 +15°C° 0 mm 5 mps 753 mmHg 51%
    15:00 +15°C° 0 mm 4 mps 753 mmHg 51%
    16:00 +15°C° 0 mm 4 mps 752 mmHg 51%
    17:00 +15°C° 0 mm 4 mps 752 mmHg 51%
    18:00 +13°C° 0 mm 3 mps 752 mmHg 57%
    19:00 +12°C° 0 mm 2 mps 752 mmHg 63%
    20:00 +9°C° 0 mm 2 mps 752 mmHg 69%
    21:00 +9°C° 0 mm 2 mps 752 mmHg 71%
    22:00 +8°C° 0 mm 2 mps 751 mmHg 74%
    23:00 +8°C° 0 mm 2 mps 751 mmHg 76%
    Mostrar más